When you browse on this site, cookies collect data to enhance your experience and personalize the content and advertising you see.
Visit our Privacy Policy to learn more. By continuing to use the site, you agree to this use of cookies and data.
  • In Deutschland
  • Länderverzeichnis
  • Für 7 Tage
  • Wassertemperatur
  • Wetterkarte
  • Widgets
  • user-avatar
    Anmelden

    Stündliche Wetter Exeter

    Heute, 8 Dezember, Sonntag

    Zeit Temperatur Niederschläge Wind Luftdruck Luftfeuchtigkeit
    00:00 +11°C° 0.7 mm 11 m/S 746 mmHg 94%
    01:00 +11°C° 0.9 mm 11 m/S 745 mmHg 91%
    02:00 +11°C° 0.9 mm 11 m/S 745 mmHg 88%
    03:00 +11°C° 0.9 mm 10 m/S 744 mmHg 85%
    04:00 +8°C° 0 mm 9 m/S 744 mmHg 84%
    05:00 +7°C° 0 mm 9 m/S 745 mmHg 84%
    06:00 +6°C° 0 mm 8 m/S 745 mmHg 83%
    07:00 +6°C° 0 mm 8 m/S 746 mmHg 82%
    08:00 +6°C° 0 mm 8 m/S 746 mmHg 81%
    09:00 +5°C° 0 mm 8 m/S 746 mmHg 80%
    10:00 +5°C° 0.4 mm 9 m/S 746 mmHg 81%
    11:00 +6°C° 0.4 mm 10 m/S 746 mmHg 82%
    12:00 +6°C° 0.4 mm 11 m/S 745 mmHg 83%
    13:00 +6°C° 0.2 mm 11 m/S 745 mmHg 80%
    14:00 +5°C° 0.2 mm 10 m/S 744 mmHg 78%
    15:00 +5°C° 0.2 mm 10 m/S 744 mmHg 76%
    16:00 +5°C° 0.1 mm 10 m/S 743 mmHg 78%
    17:00 +4°C° 0.1 mm 11 m/S 743 mmHg 79%
    18:00 +3°C° 0.1 mm 11 m/S 742 mmHg 81%
    19:00 +4°C° 0.2 mm 12 m/S 742 mmHg 82%
    20:00 +4°C° 0.2 mm 13 m/S 741 mmHg 82%
    21:00 +4°C° 0.2 mm 14 m/S 740 mmHg 82%
    22:00 +5°C° 0.4 mm 14 m/S 740 mmHg 81%
    23:00 +5°C° 0.4 mm 14 m/S 740 mmHg 79%

    Morgen, 9 Dezember, Montag

    Zeit Temperatur Niederschläge Wind Luftdruck Luftfeuchtigkeit
    00:00 +5°C° 0.4 mm 13 m/S 740 mmHg 77%
    01:00 +5°C° 0.2 mm 14 m/S 741 mmHg 77%
    02:00 +5°C° 0.2 mm 15 m/S 743 mmHg 76%
    03:00 +5°C° 0.2 mm 15 m/S 744 mmHg 76%
    04:00 +5°C° 0 mm 15 m/S 745 mmHg 74%
    05:00 +4°C° 0 mm 14 m/S 747 mmHg 73%
    06:00 +4°C° 0 mm 14 m/S 749 mmHg 71%
    07:00 +4°C° 0 mm 12 m/S 750 mmHg 71%
    08:00 +4°C° 0 mm 11 m/S 752 mmHg 71%
    09:00 +3°C° 0 mm 9 m/S 753 mmHg 71%
    10:00 +5°C° 0 mm 9 m/S 754 mmHg 69%
    11:00 +6°C° 0 mm 9 m/S 755 mmHg 68%
    12:00 +6°C° 0 mm 9 m/S 756 mmHg 66%
    13:00 +6°C° 0 mm 8 m/S 757 mmHg 69%
    14:00 +7°C° 0 mm 6 m/S 757 mmHg 72%
    15:00 +6°C° 0 mm 4 m/S 758 mmHg 74%
    16:00 +5°C° 0 mm 4 m/S 758 mmHg 79%
    17:00 +4°C° 0 mm 3 m/S 759 mmHg 83%
    18:00 +4°C° 0 mm 2 m/S 760 mmHg 87%
    19:00 +4°C° 0 mm 2 m/S 760 mmHg 88%
    20:00 +4°C° 0 mm 2 m/S 760 mmHg 89%
    21:00 +4°C° 0 mm 2 m/S 760 mmHg 90%
    22:00 +4°C° 0 mm 2 m/S 760 mmHg 90%
    23:00 +4°C° 0 mm 3 m/S 760 mmHg 90%

    übermorgen, 10 Dezember, Dienstag

    Zeit Temperatur Niederschläge Wind Luftdruck Luftfeuchtigkeit
    00:00 +4°C° 0 mm 3 m/S 760 mmHg 90%
    01:00 +5°C° 0 mm 4 m/S 759 mmHg 90%
    02:00 +5°C° 0 mm 5 m/S 758 mmHg 89%
    03:00 +5°C° 0 mm 6 m/S 757 mmHg 89%
    04:00 +6°C° 0 mm 7 m/S 756 mmHg 88%
    05:00 +6°C° 0 mm 8 m/S 755 mmHg 87%
    06:00 +7°C° 0 mm 9 m/S 754 mmHg 86%
    07:00 +7°C° 0.7 mm 10 m/S 753 mmHg 88%
    08:00 +8°C° 0.7 mm 11 m/S 752 mmHg 90%
    09:00 +8°C° 0.7 mm 11 m/S 752 mmHg 93%
    10:00 +9°C° 1.2 mm 12 m/S 751 mmHg 93%
    11:00 +9°C° 1.2 mm 12 m/S 750 mmHg 94%
    12:00 +9°C° 1.2 mm 12 m/S 749 mmHg 94%
    13:00 +10°C° 0.2 mm 12 m/S 747 mmHg 93%
    14:00 +10°C° 0.2 mm 12 m/S 746 mmHg 92%
    15:00 +10°C° 0.2 mm 13 m/S 745 mmHg 90%
    16:00 +8°C° 1.3 mm 12 m/S 745 mmHg 90%
    17:00 +7°C° 1.3 mm 11 m/S 746 mmHg 89%
    18:00 +4°C° 1.3 mm 11 m/S 746 mmHg 88%
    19:00 +3°C° 0.1 mm 9 m/S 747 mmHg 85%
    20:00 +4°C° 0.1 mm 8 m/S 748 mmHg 81%
    21:00 +4°C° 0.1 mm 7 m/S 749 mmHg 78%
    22:00 +4°C° 0 mm 6 m/S 749 mmHg 79%
    23:00 +3°C° 0 mm 6 m/S 750 mmHg 80%

    11 Dezember, Mittwoch

    Zeit Temperatur Niederschläge Wind Luftdruck Luftfeuchtigkeit
    00:00 +3°C° 0 mm 5 m/S 750 mmHg 81%
    01:00 +3°C° 0 mm 5 m/S 750 mmHg 82%
    02:00 +3°C° 0 mm 5 m/S 750 mmHg 82%
    03:00 +3°C° 0 mm 5 m/S 750 mmHg 83%
    04:00 +3°C° 0 mm 6 m/S 750 mmHg 83%
    05:00 +3°C° 0 mm 6 m/S 749 mmHg 84%
    06:00 +3°C° 0 mm 7 m/S 749 mmHg 84%
    07:00 +3°C° 0.1 mm 7 m/S 749 mmHg 83%
    08:00 +3°C° 0.1 mm 6 m/S 748 mmHg 82%
    09:00 +3°C° 0.1 mm 6 m/S 748 mmHg 81%
    10:00 +3°C° 0.3 mm 7 m/S 747 mmHg 82%
    11:00 +4°C° 0.3 mm 7 m/S 747 mmHg 82%
    12:00 +4°C° 0.3 mm 8 m/S 746 mmHg 82%
    13:00 +4°C° 0.2 mm 8 m/S 746 mmHg 81%
    14:00 +4°C° 0.2 mm 7 m/S 745 mmHg 80%
    15:00 +4°C° 0.2 mm 7 m/S 745 mmHg 79%
    16:00 +3°C° 0.1 mm 7 m/S 746 mmHg 79%
    17:00 +2°C° 0.1 mm 6 m/S 746 mmHg 80%
    18:00 +2°C° 0.1 mm 6 m/S 747 mmHg 80%
    19:00 +2°C° 0.1 mm 6 m/S 747 mmHg 80%
    20:00 +2°C° 0.1 mm 6 m/S 748 mmHg 81%
    21:00 +2°C° 0.1 mm 5 m/S 748 mmHg 81%
    22:00 +2°C° 0 mm 5 m/S 748 mmHg 81%
    23:00 +1°C° 0 mm 5 m/S 749 mmHg 82%

    12 Dezember, Donnerstag

    Zeit Temperatur Niederschläge Wind Luftdruck Luftfeuchtigkeit
    00:00 +1°C° 0 mm 5 m/S 749 mmHg 83%
    01:00 +1°C° 0 mm 5 m/S 749 mmHg 83%
    02:00 +1°C° 0 mm 5 m/S 749 mmHg 84%
    03:00 +2°C° 0 mm 5 m/S 749 mmHg 84%
    04:00 +2°C° 0 mm 5 m/S 748 mmHg 85%
    05:00 +3°C° 0 mm 6 m/S 748 mmHg 85%
    06:00 +4°C° 0 mm 6 m/S 747 mmHg 86%
    07:00 +5°C° 0 mm 7 m/S 746 mmHg 86%
    08:00 +5°C° 0 mm 8 m/S 745 mmHg 85%
    09:00 +6°C° 0 mm 9 m/S 744 mmHg 85%
    10:00 +6°C° 1.4 mm 10 m/S 742 mmHg 87%
    11:00 +7°C° 1.4 mm 11 m/S 741 mmHg 89%
    12:00 +7°C° 1.4 mm 12 m/S 739 mmHg 91%
    13:00 +7°C° 1.2 mm 11 m/S 738 mmHg 90%
    14:00 +8°C° 1.2 mm 10 m/S 737 mmHg 89%
    15:00 +10°C° 1.2 mm 8 m/S 736 mmHg 88%
    16:00 +10°C° 0.6 mm 9 m/S 735 mmHg 88%
    17:00 +9°C° 0.6 mm 10 m/S 734 mmHg 88%
    18:00 +9°C° 0.6 mm 11 m/S 734 mmHg 88%
    19:00 +9°C° 1.1 mm 10 m/S 733 mmHg 88%
    20:00 +8°C° 1.1 mm 10 m/S 733 mmHg 87%
    21:00 +8°C° 1.1 mm 10 m/S 732 mmHg 87%
    22:00 +7°C° 0.7 mm 10 m/S 732 mmHg 83%
    23:00 +7°C° 0.7 mm 11 m/S 733 mmHg 80%

    13 Dezember, Freitag

    Zeit Temperatur Niederschläge Wind Luftdruck Luftfeuchtigkeit
    00:00 +6°C° 0.7 mm 11 m/S 733 mmHg 77%
    01:00 +4°C° 0.2 mm 11 m/S 733 mmHg 78%
    02:00 +4°C° 0.2 mm 11 m/S 734 mmHg 79%
    03:00 +3°C° 0.2 mm 11 m/S 734 mmHg 80%
    04:00 +3°C° 0.2 mm 11 m/S 735 mmHg 80%
    05:00 +3°C° 0.2 mm 11 m/S 735 mmHg 80%
    06:00 +3°C° 0.2 mm 10 m/S 736 mmHg 80%
    07:00 +3°C° 0.2 mm 10 m/S 736 mmHg 81%
    08:00 +3°C° 0.2 mm 10 m/S 737 mmHg 83%
    09:00 +3°C° 0.2 mm 9 m/S 737 mmHg 84%
    10:00 +3°C° 0.1 mm 10 m/S 737 mmHg 81%
    11:00 +5°C° 0.1 mm 10 m/S 737 mmHg 79%
    12:00 +6°C° 0.1 mm 10 m/S 737 mmHg 77%
    13:00 +6°C° 0.1 mm 9 m/S 737 mmHg 80%
    14:00 +6°C° 0.1 mm 8 m/S 736 mmHg 83%
    15:00 +6°C° 0.1 mm 7 m/S 736 mmHg 85%
    16:00 +6°C° 0.2 mm 7 m/S 736 mmHg 86%
    17:00 +6°C° 0.2 mm 7 m/S 736 mmHg 87%
    18:00 +6°C° 0.2 mm 7 m/S 736 mmHg 88%
    19:00 +6°C° 0.1 mm 7 m/S 736 mmHg 86%
    20:00 +6°C° 0.1 mm 8 m/S 737 mmHg 85%
    21:00 +6°C° 0.1 mm 8 m/S 737 mmHg 83%
    22:00 +5°C° 0.1 mm 7 m/S 737 mmHg 83%
    23:00 +5°C° 0.1 mm 6 m/S 737 mmHg 83%
    Mehr zeigen